Location: Ann Arbor
(42.2710°N, 83.7260°W)
Time: 15:57:21
(UTC-04:00)

Envisat - Visible Passes

Search period start: 20 October 2017 00:00
Search period end: 30 October 2017 00:00
Orbit: 764 x 766 km, 98.2° (Epoch: 20 October)

Date Brightness Start Highest point End Pass type
(mag) Time Alt. Az. Time Alt. Az. Time Alt. Az.
20 Oct 4.5 19:58:34 16° ENE 19:58:34 16° ENE 20:01:19 10° NNE visible
20 Oct 4.3 21:38:47 35° NNW 21:38:47 35° NNW 21:41:45 10° NNW visible
21 Oct 3.9 21:01:48 37° NNE 21:01:48 37° NNE 21:05:00 10° N visible
21 Oct 5.9 22:42:01 12° WNW 22:42:01 12° WNW 22:42:43 10° NW visible
22 Oct 4.2 20:24:49 24° NE 20:24:49 24° NE 20:27:46 10° N visible
22 Oct 5.1 22:05:02 22° NW 22:05:02 22° NW 22:07:06 10° NNW visible
23 Oct 4.8 19:47:50 13° NE 19:47:50 13° NE 19:49:37 10° NNE visible
23 Oct 4.4 21:28:03 31° NNW 21:28:03 31° NNW 21:30:41 10° NNW visible
24 Oct 4.2 20:51:04 29° NNE 20:51:04 29° NNE 20:53:47 10° N visible
24 Oct 5.8 22:31:16 13° NW 22:31:16 13° NW 22:32:04 10° NW visible
25 Oct 4.5 20:14:04 19° NE 20:14:04 19° NE 20:16:22 10° NNE visible
25 Oct 5.1 21:54:17 22° NW 21:54:17 22° NW 21:56:08 10° NNW visible
26 Oct 5.0 19:37:05 10° NE 19:37:05 10° NE 19:37:20 10° NE visible
26 Oct 4.5 21:17:17 27° N 21:17:17 27° N 21:19:34 10° N visible
27 Oct 4.4 20:40:18 23° NNE 20:40:18 23° NNE 20:42:32 10° N visible
27 Oct 5.7 22:20:31 14° NW 22:20:31 14° NW 22:21:17 10° NW visible
28 Oct 4.8 20:03:18 15° NE 20:03:18 15° NE 20:04:54 10° NNE visible
28 Oct 5.1 21:43:31 20° NNW 21:43:31 20° NNW 21:45:07 10° NNW visible
29 Oct 4.7 21:06:31 23° N 21:06:31 23° N 21:08:25 10° N visible
